| time (UTC) | temp F | wind direction | speed knots | gust knots | rain 1hr in | rain 24hr in | rain mn in | humidity % | barometer mb |
| 20260504030028 | 59 | 37 | 9.6 | 14.8 | 0.00 | 0.00 | 0.00 | 80 | 1033.6 |
| 20260504024528 | 59 | 37 | 8.7 | 16.5 | 0.00 | 0.00 | 0.00 | 80 | 1033.7 |
| 20260504023025 | 59 | 3 | 9.6 | 14.8 | 0.00 | 0.00 | 0.00 | 79 | 1033.7 |
| 20260504020023 | 59 | 36 | 9.6 | 16.5 | 0.00 | 0.00 | 0.00 | 77 | 1033.8 |
| 20260504014526 | 59 | 15 | 9.6 | 16.5 | 0.00 | 0.00 | 0.00 | 79 | 1033.9 |
| 20260504013021 | 59 | 178 | 5.2 | 17.4 | 0.00 | 0.00 | 0.00 | 80 | 1034.0 |
| 20260504010018 | 59 | 14 | 7.0 | 13.0 | 0.00 | 0.00 | 0.00 | 79 | 1034.2 |
| 20260504004519 | 59 | 52 | 8.7 | 15.6 | 0.00 | 0.00 | 0.00 | 77 | 1034.4 |
| 20260504003016 | 60 | 35 | 8.7 | 14.8 | 0.00 | 0.00 | 0.00 | 77 | 1034.5 |
| 20260504000013 | 60 | 15 | 4.3 | 16.5 | 0.00 | 0.00 | 0.00 | 77 | 1034.7 |
| 20260503234518 | 59 | 35 | 7.0 | 15.6 | 0.00 | 0.00 | 0.00 | 78 | 1034.9 |
| 20260503233012 | 60 | 80 | 7.8 | 13.0 | 0.00 | 0.00 | 0.00 | 76 | 1034.9 |
| 20260503230012 | 59 | 29 | 10.4 | 17.4 | 0.00 | 0.00 | 0.00 | 77 | 1034.9 |
| 20260503224511 | 60 | 14 | 4.3 | 14.8 | 0.00 | 0.00 | 0.00 | 77 | 1034.8 |
| 20260503223009 | 59 | 9 | 7.0 | 13.9 | 0.00 | 0.00 | 0.00 | 79 | 1034.9 |
| 20260503220007 | 59 | 90 | 4.3 | 14.8 | 0.00 | 0.00 | 0.00 | 79 | 1034.8 |
| 20260503214520 | 58 | 32 | 8.7 | 13.0 | 0.00 | 0.00 | 0.00 | 78 | 1034.8 |
| 20260503213006 | 58 | 37 | 4.3 | 12.2 | 0.00 | 0.00 | 0.00 | 80 | 1034.9 |
| 20260503210002 | 58 | 38 | 4.3 | 11.3 | 0.00 | 0.00 | 0.00 | 82 | 1035.1 |
| 20260503204500 | 58 | 33 | 3.5 | 13.0 | 0.00 | 0.00 | 0.00 | 81 | 1035.0 |
| 20260503203059 | 57 | 36 | 7.8 | 13.9 | 0.00 | 0.00 | 0.00 | 79 | 1034.9 |
| 20260503201659 | 57 | 124 | 2.6 | 10.4 | 0.00 | 0.00 | 0.00 | 79 | 1034.7 |
| 20260503200113 | 57 | 80 | 3.5 | 7.8 | 0.00 | 0.00 | 0.00 | 80 | 1034.7 |
| 20260503194604 | 57 | 116 | 0.9 | 8.7 | 0.00 | 0.00 | 0.00 | 80 | 1034.6 |
| 20260503193103 | 57 | 29 | 2.6 | 7.0 | 0.00 | 0.00 | 0.00 | 80 | 1034.4 |
| 20260503191656 | 57 | 34 | 5.2 | 11.3 | 0.00 | 0.00 | 0.00 | 80 | 1034.3 |
| 20260503190020 | 56 | 131 | 2.6 | 9.6 | 0.00 | 0.00 | 0.00 | 80 | 1034.3 |
| 20260503184523 | 56 | 43 | 2.6 | 8.7 | 0.00 | 0.00 | 0.00 | 80 | 1034.2 |
| 20260503183015 | 56 | 29 | 6.1 | 9.6 | 0.00 | 0.00 | 0.00 | 80 | 1034.2 |
| 20260503181608 | 56 | 15 | 4.3 | 11.3 | 0.00 | 0.00 | 0.00 | 80 | 1034.2 |
| 20260503180111 | 56 | 44 | 3.5 | 9.6 | 0.00 | 0.00 | 0.00 | 81 | 1034.2 |
| 20260503174541 | 56 | 28 | 2.6 | 7.8 | 0.00 | 0.00 | 0.00 | 81 | 1034.2 |
| 20260503173003 | 56 | 47 | 4.3 | 8.7 | 0.00 | 0.00 | 0.00 | 80 | 1034.2 |
| 20260503171520 | 56 | 28 | 4.3 | 8.7 | 0.00 | 0.00 | 0.00 | 80 | 1034.2 |
| 20260503081551 | 55 | 39 | 0.0 | 4.3 | 0.00 | 0.00 | 0.00 | 81 | 1033.9 |
| 20260503071557 | 56 | 34 | 5.2 | 8.7 | 0.00 | 0.00 | 0.00 | 80 | 1033.9 |
| 20260503054520 | 56 | 86 | 1.7 | 7.0 | 0.00 | 0.00 | 0.00 | 79 | 1033.7 |
| 20260503053052 | 57 | 36 | 3.5 | 7.8 | 0.00 | 0.00 | 0.00 | 78 | 1033.5 |
| 20260503053020 | 57 | 48 | 2.6 | 7.8 | 0.00 | 0.00 | 0.00 | 78 | 1033.5 |
| 20260503051521 | 58 | 24 | 6.1 | 12.2 | 0.00 | 0.00 | 0.00 | 76 | 1033.4 |
| 20260503044547 | 59 | 29 | 7.8 | 11.3 | 0.00 | 0.00 | 0.00 | 75 | 1033.6 |
| 20260503043031 | 59 | 26 | 7.8 | 11.3 | 0.00 | 0.00 | 0.00 | 75 | 1033.6 |
| 20260503040039 | 60 | 44 | 7.8 | 12.2 | 0.00 | 0.00 | 0.00 | 74 | 1033.5 |
| 20260503034535 | 60 | 47 | 6.1 | 12.2 | 0.00 | 0.00 | 0.00 | 74 | 1033.5 |